Weather History for Calgary Springbank, AB

Change the Weather History Date:

Saturday, October 19, 2013

  Actual Average Record
Temperature  
Mean Temperature 43 °F -  
Max Temperature 54 °F 39 °F 68 °F (2003)
Min Temperature 32 °F 18 °F 15 °F (2004)
Degree Days  
Heating Degree Days 22    
Moisture  
Dew Point 29 °F    
Average Humidity 55    
Maximum Humidity 81    
Minimum Humidity 32    
Precipitation  
Precipitation 0.00 in - - ()
Sea Level Pressure  
Sea Level Pressure 30.03 in    
Wind  
Wind Speed 9 mph ()    
Max Wind Speed 17 mph    
Max Gust Speed 24 mph    
Visibility 15.0 miles    
Events      
Averages and records for this station are not official NWS values.
T = Trace of Precipitation, MM = Missing Value Source: Averaged Metar Reports

Daily Weather History Graph

Daily Weather History Graph

Search for Another Location

Airport:

Trip Planner

Search our weather history database for the weather conditions in past years. The results will help you decide how hot, cold, wet, or windy it might be!

Date:

Astronomy

Oct. 19, 2013 Rise Set
Actual Time 8:08 AM MDT 6:35 PM MDT
Civil Twilight 7:34 AM MDT 7:09 PM MDT
Nautical Twilight 6:56 AM MDT 7:47 PM MDT
Astronomical Twilight 6:17 AM MDT 8:25 PM MDT
Moon 6:57 PM MDT (10/19) 8:57 AM MDT (10/19)
Length of Visible Light 11h 34m
Length of Day
10h 27m
Full, 99% of the Moon is Illuminated
Oct 19
Full
Oct 26
Last Quarter
Nov 3
New
Nov 9
First Quarter
Nov 17
Full

Hourly Weather History & Observations

Time (MDT) Temp. Windchill Dew Point Humidity Pressure Visibility Wind Dir Wind Speed Gust Speed Precip Events Conditions
5:00 AM 46.4 °F 41.9 °F 28.4 °F 50% 29.93 in 15.0 mi NW 9.2 mph - N/A   Overcast
6:00 AM 38 °F - 26 °F 51% 29.97 in 15 mi WNW 8.1 mph - -   Overcast
6:00 AM 37.4 °F 32.1 °F 26.6 °F 65% 29.97 in 15.0 mi WNW 6.9 mph - N/A   Overcast
7:00 AM 37.4 °F 32.1 °F 26.6 °F 65% 29.99 in 15.0 mi NW 6.9 mph - N/A   Mostly Cloudy
7:06 AM 35.6 °F 29.9 °F 26.6 °F 70% 30.00 in 15.0 mi NW 6.9 mph - N/A   Mostly Cloudy
8:00 AM 37.4 °F 32.1 °F 26.6 °F 65% 30.00 in 30.0 mi NNW 6.9 mph - N/A   Overcast
9:00 AM 35.6 °F 30.7 °F 28.4 °F 75% 30.03 in 30.0 mi WNW 5.8 mph - N/A   Mostly Cloudy
10:00 AM 41.0 °F 37.1 °F 30.2 °F 65% 30.02 in 30.0 mi WNW 5.8 mph - N/A   Mostly Cloudy
11:00 AM 50.0 °F - 28.4 °F 43% 30.03 in 30.0 mi North 15.0 mph 24.2 mph N/A   Mostly Cloudy
12:00 PM 51 °F - 30 °F 32% 30.02 in 28 mi North 17.3 mph - -   Mostly Cloudy
12:00 PM 50.0 °F - 30.2 °F 47% 30.01 in 30.0 mi North 17.3 mph 23.0 mph N/A   Mostly Cloudy
1:00 PM 51.8 °F - 30.2 °F 44% 30.00 in 30.0 mi North 17.3 mph - N/A   Mostly Cloudy
2:00 PM 53.6 °F - 30.2 °F 41% 29.99 in 40.0 mi North 15.0 mph 20.7 mph N/A   Mostly Cloudy
3:00 PM 53.6 °F - 30.2 °F 41% 29.99 in 40.0 mi North 16.1 mph - N/A   Mostly Cloudy
4:00 PM 53.6 °F - 32.0 °F 44% 30.00 in 40.0 mi North 11.5 mph 20.7 mph N/A   Mostly Cloudy
5:00 PM 51.8 °F - 32.0 °F 47% 30.01 in 40.0 mi North 9.2 mph - N/A   Mostly Cloudy
6:00 PM 51 °F - 31 °F 34% 30.05 in 37 mi NNW 15.0 mph - -   Overcast
6:00 PM 51.8 °F - 32.0 °F 47% 30.05 in 40.0 mi North 16.1 mph - N/A   Overcast
7:00 PM 48.2 °F - 30.2 °F 50% 30.09 in 40.0 mi NW 10.4 mph 21.9 mph N/A   Mostly Cloudy
8:00 PM 42.8 °F 38.0 °F 30.2 °F 61% 30.12 in 15.0 mi NNW 8.1 mph - N/A   Mostly Cloudy
8:56 PM 35.6 °F 29.9 °F 28.4 °F 75% 30.15 in 15.0 mi NW 6.9 mph - N/A   Scattered Clouds
9:00 PM 35.6 °F 29.2 °F 28.4 °F 75% 30.17 in 15.0 mi NW 8.1 mph - N/A   Scattered Clouds
10:00 PM 33.8 °F 29.6 °F 28.4 °F 81% 30.05 in 15.0 mi NNW 4.6 mph - N/A   Partly Cloudy